Location: Casco Volunteer Fire Department
(44.5576°N, 87.6146°W)
Time: 04:37:18
(UTC+00:00)

SJ 16-02 - Pass Details

Date: 22 January 2026
Orbit: 583 x 594 km, 75.0° (Epoch: 11 February)

Event Time Altitude Azimuth Distance (km) Brightness Sun altitude
Rises 12:01:09 0° 212° (SSW) 2,792 4.5 -13.8°
Reaches altitude 10° 12:03:25 10° 217° (SW) 1,897 3.6 -13.4°
Maximum altitude 12:07:31 49° 293° (WNW) 760 1.4 -12.7°
Drops below altitude 10° 12:11:39 10° 9° (N) 1,915 3.8 -12.0°
Sets 12:13:57 0° 15° (NNE) 2,821 4.7 -11.6°
